Time,TemperatureF,DewpointF,PressureIn,WindDirection,WindDirectionDegrees,WindSpeedMPH,WindSpeedGustMPH,Humidity,HourlyPrecipIn,Conditions,Clouds,dailyrainin,SoftwareType,DateUTC
2013-02-03 00:00:00,49.5,43.3,30.31,NNE,17,0.0,7.0,79,0.00,,,0.00,Wunderground v.1.15,2013-02-03 06:00:00,
2013-02-03 00:06:00,49.7,43.1,30.31,NNE,16,0.0,7.0,78,0.00,,,0.00,Wunderground v.1.15,2013-02-03 06:06:00,
2013-02-03 00:12:00,49.6,43.0,30.31,NNE,16,0.0,7.0,78,0.00,,,0.00,Wunderground v.1.15,2013-02-03 06:12:00,
2013-02-03 00:18:00,49.6,42.7,30.31,North,356,1.0,7.0,77,0.00,,,0.00,Wunderground v.1.15,2013-02-03 06:18:00,
2013-02-03 00:24:00,49.4,42.5,30.31,North,356,1.0,7.0,77,0.00,,,0.00,Wunderground v.1.15,2013-02-03 06:24:00,
2013-02-03 00:30:00,49.0,42.1,30.31,North,356,0.0,7.0,77,0.00,,,0.00,Wunderground v.1.15,2013-02-03 06:30:00,
2013-02-03 00:36:00,48.7,41.8,30.31,North,356,0.0,7.0,77,0.00,,,0.00,Wunderground v.1.15,2013-02-03 06:36:00,
2013-02-03 00:42:00,48.8,41.6,30.31,North,356,0.0,7.0,76,0.00,,,0.00,Wunderground v.1.15,2013-02-03 06:42:00,
2013-02-03 00:48:00,49.1,41.5,30.31,North,11,0.0,7.0,75,0.00,,,0.00,Wunderground v.1.15,2013-02-03 06:48:00,
2013-02-03 00:54:00,49.4,41.5,30.31,North,352,1.0,7.0,74,0.00,,,0.00,Wunderground v.1.15,2013-02-03 06:54:00,
2013-02-03 01:00:00,49.4,41.1,30.31,NNE,30,1.0,1.0,73,0.00,,,0.00,Wunderground v.1.15,2013-02-03 07:00:00,
2013-02-03 01:06:00,49.5,41.2,30.31,North,360,1.0,7.0,73,0.00,,,0.00,Wunderground v.1.15,2013-02-03 07:06:00,
2013-02-03 01:12:00,49.4,41.1,30.31,North,6,1.0,7.0,73,0.00,,,0.00,Wunderground v.1.15,2013-02-03 07:12:00,
2013-02-03 01:18:00,49.1,40.8,30.31,North,359,0.0,7.0,73,0.00,,,0.00,Wunderground v.1.15,2013-02-03 07:18:00,
2013-02-03 01:24:00,48.9,40.6,30.31,North,8,0.0,7.0,73,0.00,,,0.00,Wunderground v.1.15,2013-02-03 07:24:00,
2013-02-03 01:30:00,48.8,40.5,30.31,NE,38,0.0,7.0,73,0.00,,,0.00,Wunderground v.1.15,2013-02-03 07:30:00,
2013-02-03 01:36:00,49.0,40.4,30.31,North,1,0.0,7.0,72,0.00,,,0.00,Wunderground v.1.15,2013-02-03 07:36:00,
2013-02-03 01:42:00,48.7,40.1,30.31,North,360,0.0,7.0,72,0.00,,,0.00,Wunderground v.1.15,2013-02-03 07:42:00,
2013-02-03 01:48:00,48.3,39.7,30.31,North,1,0.0,7.0,72,0.00,,,0.00,Wunderground v.1.15,2013-02-03 07:48:00,
2013-02-03 01:54:00,47.8,39.6,30.31,North,359,0.0,7.0,73,0.00,,,0.00,Wunderground v.1.15,2013-02-03 07:54:00,
2013-02-03 02:00:00,47.5,39.6,30.31,North,1,0.0,7.0,74,0.00,,,0.00,Wunderground v.1.15,2013-02-03 08:00:00,
2013-02-03 02:06:00,47.2,39.3,30.30,North,360,0.0,7.0,74,0.00,,,0.00,Wunderground v.1.15,2013-02-03 08:06:00,
2013-02-03 02:12:00,47.2,39.3,30.30,North,360,0.0,7.0,74,0.00,,,0.00,Wunderground v.1.15,2013-02-03 08:12:00,
2013-02-03 02:18:00,47.8,39.2,30.30,North,1,0.0,7.0,72,0.00,,,0.00,Wunderground v.1.15,2013-02-03 08:18:00,
2013-02-03 02:24:00,48.4,39.4,30.30,North,1,0.0,7.0,71,0.00,,,0.00,Wunderground v.1.15,2013-02-03 08:24:00,
2013-02-03 02:30:00,49.0,39.3,30.30,North,1,0.0,7.0,69,0.00,,,0.00,Wunderground v.1.15,2013-02-03 08:30:00,
2013-02-03 02:36:00,49.2,39.1,30.30,NNE,20,1.0,7.0,68,0.00,,,0.00,Wunderground v.1.15,2013-02-03 08:36:00,
2013-02-03 02:42:00,49.5,39.0,30.30,NNE,28,1.0,7.0,67,0.00,,,0.00,Wunderground v.1.15,2013-02-03 08:42:00,
2013-02-03 02:48:00,49.5,38.6,30.30,NNE,28,0.0,7.0,66,0.00,,,0.00,Wunderground v.1.15,2013-02-03 08:48:00,
2013-02-03 02:54:00,49.7,38.4,30.30,NNE,29,0.0,7.0,65,0.00,,,0.00,Wunderground v.1.15,2013-02-03 08:54:00,
2013-02-03 03:00:00,49.9,38.2,30.30,NNE,29,0.0,7.0,64,0.00,,,0.00,Wunderground v.1.15,2013-02-03 09:00:00,
2013-02-03 03:06:00,50.2,37.7,30.30,NNE,22,1.0,7.0,62,0.00,,,0.00,Wunderground v.1.15,2013-02-03 09:06:00,
2013-02-03 03:12:00,50.3,37.8,30.30,NNE,22,1.0,7.0,62,0.00,,,0.00,Wunderground v.1.15,2013-02-03 09:12:00,
2013-02-03 03:18:00,50.4,37.4,30.31,NNE,22,0.0,7.0,61,0.00,,,0.00,Wunderground v.1.15,2013-02-03 09:18:00,
2013-02-03 03:24:00,50.6,37.6,30.31,NNE,30,0.0,7.0,61,0.00,,,0.00,Wunderground v.1.15,2013-02-03 09:24:00,
2013-02-03 03:30:00,50.6,37.2,30.31,NNE,30,0.0,7.0,60,0.00,,,0.00,Wunderground v.1.15,2013-02-03 09:30:00,
2013-02-03 03:36:00,50.6,37.2,30.31,NNE,30,0.0,7.0,60,0.00,,,0.00,Wunderground v.1.15,2013-02-03 09:36:00,
2013-02-03 03:42:00,50.6,37.2,30.31,NE,56,0.0,7.0,60,0.00,,,0.00,Wunderground v.1.15,2013-02-03 09:42:00,
2013-02-03 03:48:00,50.4,37.0,30.31,NE,51,0.0,7.0,60,0.00,,,0.00,Wunderground v.1.15,2013-02-03 09:48:00,
2013-02-03 03:54:00,50.2,36.8,30.31,NE,51,0.0,7.0,60,0.00,,,0.00,Wunderground v.1.15,2013-02-03 09:54:00,
2013-02-03 04:00:00,50.0,36.7,30.31,NE,51,0.0,7.0,60,0.00,,,0.00,Wunderground v.1.15,2013-02-03 10:00:00,
2013-02-03 04:06:00,49.9,36.6,30.31,NE,51,0.0,7.0,60,0.00,,,0.00,Wunderground v.1.15,2013-02-03 10:06:00,
2013-02-03 04:12:00,49.9,36.6,30.31,ENE,59,0.0,7.0,60,0.00,,,0.00,Wunderground v.1.15,2013-02-03 10:12:00,
2013-02-03 04:18:00,49.9,36.6,30.31,ENE,60,0.0,7.0,60,0.00,,,0.00,Wunderground v.1.15,2013-02-03 10:18:00,
2013-02-03 04:24:00,49.8,36.9,30.31,ENE,59,0.0,7.0,61,0.00,,,0.00,Wunderground v.1.15,2013-02-03 10:24:00,
2013-02-03 04:30:00,49.6,36.7,30.30,ENE,58,0.0,7.0,61,0.00,,,0.00,Wunderground v.1.15,2013-02-03 10:30:00,
2013-02-03 04:36:00,49.7,36.8,30.30,ENE,69,0.0,7.0,61,0.00,,,0.00,Wunderground v.1.15,2013-02-03 10:36:00,
2013-02-03 04:42:00,49.5,36.6,30.30,ENE,69,0.0,7.0,61,0.00,,,0.00,Wunderground v.1.15,2013-02-03 10:42:00,
2013-02-03 04:48:00,49.5,36.6,30.30,ENE,72,0.0,7.0,61,0.00,,,0.00,Wunderground v.1.15,2013-02-03 10:48:00,
2013-02-03 04:54:00,49.5,36.6,30.30,NE,36,0.0,7.0,61,0.00,,,0.00,Wunderground v.1.15,2013-02-03 10:54:00,
2013-02-03 05:00:00,49.5,36.2,30.30,NNE,28,1.0,7.0,60,0.00,,,0.00,Wunderground v.1.15,2013-02-03 11:00:00,
2013-02-03 05:06:00,49.6,35.8,30.30,NE,56,1.0,7.0,59,0.00,,,0.00,Wunderground v.1.15,2013-02-03 11:06:00,
2013-02-03 05:12:00,49.9,35.7,30.30,East,82,1.0,3.0,58,0.00,,,0.00,Wunderground v.1.15,2013-02-03 11:12:00,
2013-02-03 05:18:00,50.1,35.9,30.30,East,101,0.0,7.0,58,0.00,,,0.00,Wunderground v.1.15,2013-02-03 11:18:00,
2013-02-03 05:24:00,49.9,35.3,30.30,SE,141,0.0,7.0,57,0.00,,,0.00,Wunderground v.1.15,2013-02-03 11:24:00,
2013-02-03 05:30:00,50.1,35.4,30.31,SE,126,0.0,7.0,57,0.00,,,0.00,Wunderground v.1.15,2013-02-03 11:30:00,
2013-02-03 05:36:00,50.3,35.6,30.31,ESE,116,1.0,7.0,57,0.00,,,0.00,Wunderground v.1.15,2013-02-03 11:36:00,
2013-02-03 05:42:00,50.6,35.5,30.31,ENE,74,1.0,7.0,56,0.00,,,0.00,Wunderground v.1.15,2013-02-03 11:42:00,
2013-02-03 05:48:00,50.8,35.7,30.31,East,96,0.0,7.0,56,0.00,,,0.00,Wunderground v.1.15,2013-02-03 11:48:00,
2013-02-03 05:54:00,50.8,35.7,30.31,ENE,67,0.0,7.0,56,0.00,,,0.00,Wunderground v.1.15,2013-02-03 11:54:00,
2013-02-03 06:01:00,50.9,35.7,30.31,SE,143,0.0,1.0,56,0.00,,,0.00,Wunderground v.1.15,2013-02-03 12:01:00,
2013-02-03 06:06:00,50.9,35.7,30.31,ESE,103,1.0,3.0,56,0.00,,,0.00,Wunderground v.1.15,2013-02-03 12:06:00,
2013-02-03 06:12:00,50.8,35.7,30.31,SE,138,1.0,1.0,56,0.00,,,0.00,Wunderground v.1.15,2013-02-03 12:12:00,
2013-02-03 06:18:00,50.7,36.0,30.31,SE,132,1.0,1.0,57,0.00,,,0.00,Wunderground v.1.15,2013-02-03 12:18:00,
2013-02-03 06:24:00,50.5,35.8,30.31,SE,131,1.0,2.0,57,0.00,,,0.00,Wunderground v.1.15,2013-02-03 12:24:00,
2013-02-03 06:30:00,50.5,35.8,30.31,East,91,1.0,1.0,57,0.00,,,0.00,Wunderground v.1.15,2013-02-03 12:30:00,
2013-02-03 06:36:00,50.4,35.7,30.31,ESE,116,0.0,1.0,57,0.00,,,0.00,Wunderground v.1.15,2013-02-03 12:36:00,
2013-02-03 06:42:00,50.5,35.8,30.32,NE,39,0.0,2.0,57,0.00,,,0.00,Wunderground v.1.15,2013-02-03 12:42:00,
2013-02-03 06:48:00,50.5,35.4,30.32,East,87,1.0,4.0,56,0.00,,,0.00,Wunderground v.1.15,2013-02-03 12:48:00,
2013-02-03 06:54:00,50.5,35.4,30.31,ESE,122,1.0,1.0,56,0.00,,,0.00,Wunderground v.1.15,2013-02-03 12:54:00,
2013-02-03 07:00:00,50.4,35.7,30.32,ENE,75,1.0,1.0,57,0.00,,,0.00,Wunderground v.1.15,2013-02-03 13:00:00,
2013-02-03 07:06:00,50.4,35.3,30.32,SE,136,1.0,2.0,56,0.00,,,0.00,Wunderground v.1.15,2013-02-03 13:06:00,
2013-02-03 07:12:00,50.4,35.3,30.32,East,98,1.0,3.0,56,0.00,,,0.00,Wunderground v.1.15,2013-02-03 13:12:00,
2013-02-03 07:18:00,50.4,35.3,30.32,SE,143,1.0,3.0,56,0.00,,,0.00,Wunderground v.1.15,2013-02-03 13:18:00,
2013-02-03 07:24:00,50.3,35.2,30.32,East,98,1.0,2.0,56,0.00,,,0.00,Wunderground v.1.15,2013-02-03 13:24:00,
2013-02-03 07:30:00,50.4,35.3,30.32,ESE,113,2.0,2.0,56,0.00,,,0.00,Wunderground v.1.15,2013-02-03 13:30:00,
2013-02-03 07:36:00,50.4,35.3,30.33,SE,136,2.0,6.0,56,0.00,,,0.00,Wunderground v.1.15,2013-02-03 13:36:00,
2013-02-03 07:42:00,50.5,35.4,30.32,SE,145,2.0,3.0,56,0.00,,,0.00,Wunderground v.1.15,2013-02-03 13:42:00,
2013-02-03 07:48:00,50.5,35.4,30.33,SE,126,1.0,3.0,56,0.00,,,0.00,Wunderground v.1.15,2013-02-03 13:48:00,
2013-02-03 07:54:00,50.6,35.5,30.33,ESE,105,1.0,2.0,56,0.00,,,0.00,Wunderground v.1.15,2013-02-03 13:54:00,
2013-02-03 08:00:00,50.8,35.2,30.33,SE,129,2.0,2.0,55,0.00,,,0.00,Wunderground v.1.15,2013-02-03 14:00:00,
2013-02-03 08:06:00,50.9,35.3,30.33,SE,125,2.0,3.0,55,0.00,,,0.00,Wunderground v.1.15,2013-02-03 14:06:00,
2013-02-03 08:12:00,51.1,35.9,30.33,East,93,1.0,2.0,56,0.00,,,0.00,Wunderground v.1.15,2013-02-03 14:12:00,
2013-02-03 08:18:00,51.3,35.2,30.33,ENE,64,1.0,2.0,54,0.00,,,0.00,Wunderground v.1.15,2013-02-03 14:18:00,
2013-02-03 08:24:00,51.5,35.4,30.33,SSE,167,2.0,4.0,54,0.00,,,0.00,Wunderground v.1.15,2013-02-03 14:24:00,
2013-02-03 08:30:00,51.8,35.7,30.34,ESE,113,2.0,3.0,54,0.00,,,0.00,Wunderground v.1.15,2013-02-03 14:30:00,
2013-02-03 08:36:00,52.2,36.0,30.33,ESE,123,3.0,4.0,54,0.00,,,0.00,Wunderground v.1.15,2013-02-03 14:36:00,
2013-02-03 08:42:00,53.0,35.8,30.34,ESE,108,4.0,5.0,52,0.00,,,0.00,Wunderground v.1.15,2013-02-03 14:42:00,
2013-02-03 08:48:00,53.2,35.5,30.34,ESE,122,4.0,5.0,51,0.00,,,0.00,Wunderground v.1.15,2013-02-03 14:48:00,
2013-02-03 08:54:00,53.4,36.2,30.34,SE,142,3.0,5.0,52,0.00,,,0.00,Wunderground v.1.15,2013-02-03 14:54:00,
2013-02-03 09:00:00,53.7,37.0,30.34,South,170,3.0,3.0,53,0.00,,,0.00,Wunderground v.1.15,2013-02-03 15:00:00,
2013-02-03 09:06:00,53.7,36.5,30.34,SE,137,4.0,5.0,52,0.00,,,0.00,Wunderground v.1.15,2013-02-03 15:06:00,
2013-02-03 09:12:00,53.6,36.4,30.34,SE,127,5.0,6.0,52,0.00,,,0.00,Wunderground v.1.15,2013-02-03 15:12:00,
2013-02-03 09:18:00,53.6,36.9,30.34,SSE,160,4.0,6.0,53,0.00,,,0.00,Wunderground v.1.15,2013-02-03 15:18:00,
2013-02-03 09:24:00,53.8,36.6,30.34,SE,139,4.0,6.0,52,0.00,,,0.00,Wunderground v.1.15,2013-02-03 15:24:00,
2013-02-03 09:30:00,54.3,37.5,30.34,ESE,115,4.0,4.0,53,0.00,,,0.00,Wunderground v.1.15,2013-02-03 15:30:00,
2013-02-03 09:36:00,54.7,37.4,30.34,SSE,165,2.0,5.0,52,0.00,,,0.00,Wunderground v.1.15,2013-02-03 15:36:00,
2013-02-03 09:42:00,55.1,36.8,30.35,ESE,120,3.0,7.0,50,0.00,,,0.00,Wunderground v.1.15,2013-02-03 15:42:00,
2013-02-03 09:48:00,55.1,36.3,30.34,ENE,75,3.0,7.0,49,0.00,,,0.00,Wunderground v.1.15,2013-02-03 15:48:00,
2013-02-03 09:54:00,55.3,36.5,30.34,ESE,113,3.0,5.0,49,0.00,,,0.00,Wunderground v.1.15,2013-02-03 15:54:00,
2013-02-03 10:00:00,55.9,37.0,30.34,East,93,2.0,3.0,49,0.00,,,0.00,Wunderground v.1.15,2013-02-03 16:00:00,
2013-02-03 10:06:00,57.0,36.4,30.34,East,98,2.0,3.0,46,0.00,,,0.00,Wunderground v.1.15,2013-02-03 16:06:00,
2013-02-03 10:12:00,58.3,35.9,30.34,SSE,150,3.0,4.0,43,0.00,,,0.00,Wunderground v.1.15,2013-02-03 16:12:00,
2013-02-03 10:18:00,59.1,35.4,30.34,East,94,4.0,5.0,41,0.00,,,0.00,Wunderground v.1.15,2013-02-03 16:18:00,
2013-02-03 10:24:00,59.7,34.0,30.33,NNE,33,4.0,5.0,38,0.00,,,0.00,Wunderground v.1.15,2013-02-03 16:24:00,
2013-02-03 10:30:00,60.0,35.0,30.34,SE,136,4.0,10.0,39,0.00,,,0.00,Wunderground v.1.15,2013-02-03 16:30:00,
2013-02-03 10:36:00,60.6,33.5,30.33,SE,138,4.0,10.0,36,0.00,,,0.00,Wunderground v.1.15,2013-02-03 16:36:00,
2013-02-03 10:42:00,61.6,33.7,30.33,SE,128,3.0,5.0,35,0.00,,,0.00,Wunderground v.1.15,2013-02-03 16:42:00,
2013-02-03 10:48:00,60.7,29.1,30.33,ESE,115,6.0,11.0,30,0.00,,,0.00,Wunderground v.1.15,2013-02-03 16:48:00,
2013-02-03 10:54:00,60.4,30.4,30.33,ESE,104,8.0,8.0,32,0.00,,,0.00,Wunderground v.1.15,2013-02-03 16:54:00,
2013-02-03 11:00:00,60.9,30.8,30.33,East,100,6.0,7.0,32,0.00,,,0.00,Wunderground v.1.15,2013-02-03 17:00:00,
2013-02-03 11:06:00,61.0,31.7,30.33,ESE,113,6.0,9.0,33,0.00,,,0.00,Wunderground v.1.15,2013-02-03 17:06:00,
2013-02-03 11:12:00,61.4,30.5,30.33,SE,143,5.0,9.0,31,0.00,,,0.00,Wunderground v.1.15,2013-02-03 17:12:00,
2013-02-03 11:18:00,61.1,31.0,30.33,SSE,153,7.0,12.0,32,0.00,,,0.00,Wunderground v.1.15,2013-02-03 17:18:00,
2013-02-03 11:24:00,60.9,29.2,30.32,SE,131,8.0,11.0,30,0.00,,,0.00,Wunderground v.1.15,2013-02-03 17:24:00,
2013-02-03 11:30:00,61.0,28.5,30.32,SE,136,8.0,8.0,29,0.00,,,0.00,Wunderground v.1.15,2013-02-03 17:30:00,
2013-02-03 11:36:00,61.9,29.3,30.32,ESE,113,7.0,8.0,29,0.00,,,0.00,Wunderground v.1.15,2013-02-03 17:36:00,
2013-02-03 11:42:00,61.4,28.0,30.32,ESE,108,6.0,8.0,28,0.00,,,0.00,Wunderground v.1.15,2013-02-03 17:42:00,
2013-02-03 11:48:00,61.3,28.7,30.32,SE,131,7.0,8.0,29,0.00,,,0.00,Wunderground v.1.15,2013-02-03 17:48:00,
2013-02-03 11:54:00,61.6,29.8,30.31,ESE,120,7.0,11.0,30,0.00,,,0.00,Wunderground v.1.15,2013-02-03 17:54:00,
2013-02-03 12:00:00,61.6,29.0,30.30,ESE,122,7.0,10.0,29,0.00,,,0.00,Wunderground v.1.15,2013-02-03 18:00:00,
2013-02-03 12:06:00,62.5,30.6,30.30,SSE,156,7.0,10.0,30,0.00,,,0.00,Wunderground v.1.15,2013-02-03 18:06:00,
2013-02-03 12:12:00,62.7,30.0,30.29,ENE,77,6.0,8.0,29,0.00,,,0.00,Wunderground v.1.15,2013-02-03 18:12:00,
2013-02-03 12:18:00,63.0,30.2,30.28,SE,141,6.0,8.0,29,0.00,,,0.00,Wunderground v.1.15,2013-02-03 18:18:00,
2013-02-03 12:24:00,63.7,30.8,30.28,SE,139,6.0,8.0,29,0.00,,,0.00,Wunderground v.1.15,2013-02-03 18:24:00,
2013-02-03 12:30:00,63.0,32.7,30.27,East,88,7.0,7.0,32,0.00,,,0.00,Wunderground v.1.15,2013-02-03 18:30:00,
2013-02-03 12:36:00,63.7,32.5,30.27,SE,145,7.0,11.0,31,0.00,,,0.00,Wunderground v.1.15,2013-02-03 18:36:00,
2013-02-03 12:42:00,63.9,33.4,30.26,SSE,150,7.0,8.0,32,0.00,,,0.00,Wunderground v.1.15,2013-02-03 18:42:00,
2013-02-03 12:48:00,64.1,33.6,30.26,South,170,7.0,8.0,32,0.00,,,0.00,Wunderground v.1.15,2013-02-03 18:48:00,
2013-02-03 12:54:00,64.3,36.0,30.25,SSW,203,6.0,7.0,35,0.00,,,0.00,Wunderground v.1.15,2013-02-03 18:54:00,
2013-02-03 13:00:00,64.3,38.1,30.25,South,169,7.0,7.0,38,0.00,,,0.00,Wunderground v.1.15,2013-02-03 19:00:00,
2013-02-03 13:06:00,64.2,37.4,30.25,SSE,153,7.0,10.0,37,0.00,,,0.00,Wunderground v.1.15,2013-02-03 19:06:00,
2013-02-03 13:12:00,64.7,38.5,30.24,SE,141,7.0,7.0,38,0.00,,,0.00,Wunderground v.1.15,2013-02-03 19:12:00,
2013-02-03 13:18:00,64.8,38.6,30.23,ESE,109,7.0,10.0,38,0.00,,,0.00,Wunderground v.1.15,2013-02-03 19:18:00,
2013-02-03 13:24:00,64.6,38.4,30.23,SE,128,7.0,7.0,38,0.00,,,0.00,Wunderground v.1.15,2013-02-03 19:24:00,
2013-02-03 13:30:00,64.9,38.7,30.22,SSE,150,7.0,7.0,38,0.00,,,0.00,Wunderground v.1.15,2013-02-03 19:30:00,
2013-02-03 13:36:00,65.5,38.5,30.21,SE,134,8.0,8.0,37,0.00,,,0.00,Wunderground v.1.15,2013-02-03 19:36:00,
2013-02-03 13:42:00,66.1,38.4,30.21,SE,131,7.0,7.0,36,0.00,,,0.00,Wunderground v.1.15,2013-02-03 19:42:00,
2013-02-03 13:48:00,66.0,39.7,30.20,SSE,150,7.0,8.0,38,0.00,,,0.00,Wunderground v.1.15,2013-02-03 19:48:00,
2013-02-03 13:54:00,64.6,40.4,30.20,ESE,102,7.0,9.0,41,0.00,,,0.00,Wunderground v.1.15,2013-02-03 19:54:00,
2013-02-03 14:00:00,65.5,41.8,30.20,SSE,158,6.0,9.0,42,0.00,,,0.00,Wunderground v.1.15,2013-02-03 20:00:00,
2013-02-03 14:06:00,65.8,41.4,30.19,SE,124,7.0,9.0,41,0.00,,,0.00,Wunderground v.1.15,2013-02-03 20:06:00,
2013-02-03 14:12:00,65.6,41.9,30.19,South,181,7.0,7.0,42,0.00,,,0.00,Wunderground v.1.15,2013-02-03 20:12:00,
2013-02-03 14:18:00,66.3,43.7,30.19,SSE,148,7.0,7.0,44,0.00,,,0.00,Wunderground v.1.15,2013-02-03 20:18:00,
2013-02-03 14:28:00,66.3,42.5,30.18,SE,129,7.0,11.0,42,0.00,,,0.00,Wunderground v.1.15,2013-02-03 20:28:00,
2013-02-03 14:34:00,66.7,44.1,30.18,ESE,114,5.0,9.0,44,0.00,,,0.00,Wunderground v.1.15,2013-02-03 20:34:00,
2013-02-03 14:44:00,66.1,44.1,30.17,SSW,212,7.0,10.0,45,0.00,,,0.00,Wunderground v.1.15,2013-02-03 20:44:00,
2013-02-03 14:50:00,66.2,44.2,30.17,SSE,166,8.0,16.0,45,0.00,,,0.00,Wunderground v.1.15,2013-02-03 20:50:00,
2013-02-03 14:56:00,65.4,43.5,30.16,SSE,147,9.0,16.0,45,0.00,,,0.00,Wunderground v.1.15,2013-02-03 20:56:00,
2013-02-03 15:02:00,64.7,43.4,30.16,South,176,7.0,8.0,46,0.00,,,0.00,Wunderground v.1.15,2013-02-03 21:02:00,
2013-02-03 15:08:00,64.5,43.3,30.15,SE,129,8.0,8.0,46,0.00,,,0.00,Wunderground v.1.15,2013-02-03 21:08:00,
2013-02-03 15:14:00,65.5,42.4,30.15,ESE,117,7.0,8.0,43,0.00,,,0.00,Wunderground v.1.15,2013-02-03 21:14:00,
2013-02-03 15:26:00,66.0,42.9,30.15,SE,143,6.0,7.0,43,0.00,,,0.00,Wunderground v.1.15,2013-02-03 21:26:00,
2013-02-03 15:32:00,66.2,43.6,30.14,SSE,152,8.0,8.0,44,0.00,,,0.00,Wunderground v.1.15,2013-02-03 21:32:00,
2013-02-03 15:38:00,66.6,43.4,30.14,ESE,120,7.0,9.0,43,0.00,,,0.00,Wunderground v.1.15,2013-02-03 21:38:00,
2013-02-03 15:44:00,67.2,45.1,30.14,SSE,150,6.0,11.0,45,0.00,,,0.00,Wunderground v.1.15,2013-02-03 21:44:00,
2013-02-03 15:50:00,66.9,45.4,30.14,SSE,153,8.0,8.0,46,0.00,,,0.00,Wunderground v.1.15,2013-02-03 21:50:00,
2013-02-03 15:56:00,66.7,45.8,30.14,South,186,9.0,10.0,47,0.00,,,0.00,Wunderground v.1.15,2013-02-03 21:56:00,
2013-02-03 16:02:00,66.7,45.8,30.13,SE,146,9.0,11.0,47,0.00,,,0.00,Wunderground v.1.15,2013-02-03 22:02:00,
2013-02-03 16:08:00,66.6,45.7,30.13,SSE,165,8.0,13.0,47,0.00,,,0.00,Wunderground v.1.15,2013-02-03 22:08:00,
2013-02-03 16:14:00,66.2,45.9,30.13,South,174,9.0,11.0,48,0.00,,,0.00,Wunderground v.1.15,2013-02-03 22:14:00,
2013-02-03 16:20:00,66.0,46.3,30.13,SE,143,9.0,9.0,49,0.00,,,0.00,Wunderground v.1.15,2013-02-03 22:20:00,
2013-02-03 16:26:00,65.9,45.6,30.13,SE,145,9.0,11.0,48,0.00,,,0.00,Wunderground v.1.15,2013-02-03 22:26:00,
2013-02-03 16:32:00,65.8,46.1,30.13,SSW,197,9.0,9.0,49,0.00,,,0.00,Wunderground v.1.15,2013-02-03 22:32:00,
2013-02-03 16:38:00,65.4,45.7,30.13,SE,141,9.0,12.0,49,0.00,,,0.00,Wunderground v.1.15,2013-02-03 22:38:00,
2013-02-03 16:44:00,65.1,46.5,30.13,South,179,10.0,11.0,51,0.00,,,0.00,Wunderground v.1.15,2013-02-03 22:44:00,
2013-02-03 16:50:00,64.9,46.3,30.13,SE,127,9.0,12.0,51,0.00,,,0.00,Wunderground v.1.15,2013-02-03 22:50:00,
2013-02-03 16:56:00,65.0,46.9,30.13,South,179,8.0,12.0,52,0.00,,,0.00,Wunderground v.1.15,2013-02-03 22:56:00,
2013-02-03 17:02:00,65.0,46.9,30.12,SSE,163,7.0,10.0,52,0.00,,,0.00,Wunderground v.1.15,2013-02-03 23:02:00,
2013-02-03 17:08:00,64.8,46.8,30.12,SE,145,7.0,10.0,52,0.00,,,0.00,Wunderground v.1.15,2013-02-03 23:08:00,
2013-02-03 17:14:00,64.5,46.5,30.12,South,170,7.0,10.0,52,0.00,,,0.00,Wunderground v.1.15,2013-02-03 23:14:00,
2013-02-03 17:20:00,64.0,46.0,30.11,SW,225,9.0,9.0,52,0.00,,,0.00,Wunderground v.1.15,2013-02-03 23:20:00,
2013-02-03 17:26:00,63.7,46.2,30.11,SSE,151,9.0,9.0,53,0.00,,,0.00,Wunderground v.1.15,2013-02-03 23:26:00,
2013-02-03 17:32:00,63.4,46.0,30.11,South,176,7.0,7.0,53,0.00,,,0.00,Wunderground v.1.15,2013-02-03 23:32:00,
2013-02-03 17:38:00,63.2,45.8,30.10,SSE,153,7.0,10.0,53,0.00,,,0.00,Wunderground v.1.15,2013-02-03 23:38:00,
2013-02-03 17:44:00,63.0,46.1,30.10,SSE,158,7.0,7.0,54,0.00,,,0.00,Wunderground v.1.15,2013-02-03 23:44:00,
2013-02-03 17:50:00,62.8,45.9,30.10,SSE,156,7.0,13.0,54,0.00,,,0.00,Wunderground v.1.15,2013-02-03 23:50:00,
2013-02-03 17:56:00,62.6,46.2,30.11,SE,146,8.0,13.0,55,0.00,,,0.00,Wunderground v.1.15,2013-02-03 23:56:00,
2013-02-03 18:02:00,62.4,46.0,30.11,SSE,154,6.0,7.0,55,0.00,,,0.00,Wunderground v.1.15,2013-02-04 00:02:00,
2013-02-03 18:08:00,62.2,46.3,30.10,SE,145,6.0,7.0,56,0.00,,,0.00,Wunderground v.1.15,2013-02-04 00:08:00,
2013-02-03 18:14:00,62.1,46.7,30.10,SE,146,6.0,8.0,57,0.00,,,0.00,Wunderground v.1.15,2013-02-04 00:14:00,
2013-02-03 18:20:00,61.9,46.5,30.10,SSE,150,6.0,6.0,57,0.00,,,0.00,Wunderground v.1.15,2013-02-04 00:20:00,
2013-02-03 18:26:00,61.8,46.9,30.10,SSE,157,5.0,6.0,58,0.00,,,0.00,Wunderground v.1.15,2013-02-04 00:26:00,
2013-02-03 18:32:00,61.5,47.0,30.10,SSE,158,5.0,7.0,59,0.00,,,0.00,Wunderground v.1.15,2013-02-04 00:32:00,
2013-02-03 18:38:00,61.3,46.8,30.10,SE,139,5.0,7.0,59,0.00,,,0.00,Wunderground v.1.15,2013-02-04 00:38:00,
2013-02-03 18:44:00,61.1,47.1,30.09,SSE,150,5.0,9.0,60,0.00,,,0.00,Wunderground v.1.15,2013-02-04 00:44:00,
2013-02-03 18:50:00,60.9,46.9,30.09,SSE,157,5.0,5.0,60,0.00,,,0.00,Wunderground v.1.15,2013-02-04 00:50:00,
2013-02-03 18:56:00,60.6,47.1,30.09,SE,134,5.0,5.0,61,0.00,,,0.00,Wunderground v.1.15,2013-02-04 00:56:00,
2013-02-03 19:02:00,60.4,46.9,30.09,SSE,164,5.0,6.0,61,0.00,,,0.00,Wunderground v.1.15,2013-02-04 01:02:00,
2013-02-03 19:08:00,60.3,46.8,30.08,SSE,151,5.0,7.0,61,0.00,,,0.00,Wunderground v.1.15,2013-02-04 01:08:00,
2013-02-03 19:14:00,60.2,46.7,30.08,SSE,148,6.0,6.0,61,0.00,,,0.00,Wunderground v.1.15,2013-02-04 01:14:00,
2013-02-03 19:20:00,60.0,46.5,30.08,SE,124,6.0,6.0,61,0.00,,,0.00,Wunderground v.1.15,2013-02-04 01:20:00,
2013-02-03 19:26:00,59.9,46.4,30.08,SSE,162,6.0,7.0,61,0.00,,,0.00,Wunderground v.1.15,2013-02-04 01:26:00,
2013-02-03 19:32:00,59.7,46.2,30.08,SSE,163,6.0,8.0,61,0.00,,,0.00,Wunderground v.1.15,2013-02-04 01:32:00,
2013-02-03 19:38:00,59.8,46.3,30.08,SSE,159,6.0,10.0,61,0.00,,,0.00,Wunderground v.1.15,2013-02-04 01:38:00,
2013-02-03 19:44:00,59.6,46.1,30.08,SE,139,6.0,7.0,61,0.00,,,0.00,Wunderground v.1.15,2013-02-04 01:44:00,
2013-02-03 19:50:00,59.6,46.1,30.08,SE,141,6.0,6.0,61,0.00,,,0.00,Wunderground v.1.15,2013-02-04 01:50:00,
2013-02-03 19:56:00,59.5,46.0,30.08,SE,136,6.0,6.0,61,0.00,,,0.00,Wunderground v.1.15,2013-02-04 01:56:00,
2013-02-03 20:02:00,59.5,46.0,30.08,ESE,115,6.0,8.0,61,0.00,,,0.00,Wunderground v.1.15,2013-02-04 02:02:00,
2013-02-03 20:08:00,59.5,46.0,30.08,SSE,149,6.0,8.0,61,0.00,,,0.00,Wunderground v.1.15,2013-02-04 02:08:00,
2013-02-03 20:14:00,59.5,46.0,30.08,SSE,153,7.0,9.0,61,0.00,,,0.00,Wunderground v.1.15,2013-02-04 02:14:00,
2013-02-03 20:20:00,59.4,45.9,30.08,SSE,162,7.0,10.0,61,0.00,,,0.00,Wunderground v.1.15,2013-02-04 02:20:00,
2013-02-03 20:26:00,59.3,45.8,30.07,SSE,158,7.0,10.0,61,0.00,,,0.00,Wunderground v.1.15,2013-02-04 02:26:00,
2013-02-03 20:32:00,59.3,46.3,30.07,SSE,159,8.0,11.0,62,0.00,,,0.00,Wunderground v.1.15,2013-02-04 02:32:00,
2013-02-03 20:38:00,59.2,46.2,30.06,SE,132,8.0,13.0,62,0.00,,,0.00,Wunderground v.1.15,2013-02-04 02:38:00,
2013-02-03 20:44:00,59.1,46.1,30.06,SE,136,8.0,10.0,62,0.00,,,0.00,Wunderground v.1.15,2013-02-04 02:44:00,
2013-02-03 20:50:00,59.1,46.1,30.05,SSE,162,9.0,9.0,62,0.00,,,0.00,Wunderground v.1.15,2013-02-04 02:50:00,
2013-02-03 20:56:00,59.1,46.1,30.05,SSE,162,8.0,9.0,62,0.00,,,0.00,Wunderground v.1.15,2013-02-04 02:56:00,
2013-02-03 21:02:00,59.0,46.0,30.05,South,180,8.0,11.0,62,0.00,,,0.00,Wunderground v.1.15,2013-02-04 03:02:00,
2013-02-03 21:08:00,59.0,46.4,30.04,SSE,156,9.0,11.0,63,0.00,,,0.00,Wunderground v.1.15,2013-02-04 03:08:00,
2013-02-03 21:14:00,58.9,46.3,30.04,SE,140,9.0,12.0,63,0.00,,,0.00,Wunderground v.1.15,2013-02-04 03:14:00,
2013-02-03 21:20:00,58.8,46.2,30.04,SE,125,9.0,9.0,63,0.00,,,0.00,Wunderground v.1.15,2013-02-04 03:20:00,
2013-02-03 21:26:00,58.8,46.6,30.04,SE,139,9.0,13.0,64,0.00,,,0.00,Wunderground v.1.15,2013-02-04 03:26:00,
2013-02-03 21:32:00,58.7,46.5,30.03,SE,124,9.0,10.0,64,0.00,,,0.00,Wunderground v.1.15,2013-02-04 03:32:00,
2013-02-03 21:38:00,58.6,46.5,30.04,South,179,9.0,17.0,64,0.00,,,0.00,Wunderground v.1.15,2013-02-04 03:38:00,
2013-02-03 21:44:00,58.6,46.9,30.04,SSE,150,10.0,13.0,65,0.00,,,0.00,Wunderground v.1.15,2013-02-04 03:44:00,
2013-02-03 21:50:00,58.5,46.8,30.04,SSE,154,10.0,10.0,65,0.00,,,0.00,Wunderground v.1.15,2013-02-04 03:50:00,
2013-02-03 21:56:00,58.4,47.1,30.04,ESE,103,10.0,11.0,66,0.00,,,0.00,Wunderground v.1.15,2013-02-04 03:56:00,
2013-02-03 22:02:00,58.3,47.8,30.04,SE,131,10.0,12.0,68,0.00,,,0.00,Wunderground v.1.15,2013-02-04 04:02:00,
2013-02-03 22:08:00,58.2,48.1,30.03,South,183,11.0,14.0,69,0.00,,,0.00,Wunderground v.1.15,2013-02-04 04:08:00,
2013-02-03 22:14:00,58.2,49.2,30.03,SE,143,12.0,19.0,72,0.00,,,0.00,Wunderground v.1.15,2013-02-04 04:14:00,
2013-02-03 22:20:00,58.2,49.6,30.02,SE,141,12.0,13.0,73,0.00,,,0.00,Wunderground v.1.15,2013-02-04 04:20:00,
2013-02-03 22:26:00,58.2,50.3,30.02,ESE,122,12.0,18.0,75,0.00,,,0.00,Wunderground v.1.15,2013-02-04 04:26:00,
2013-02-03 22:32:00,58.2,50.7,30.02,SE,146,14.0,19.0,76,0.00,,,0.00,Wunderground v.1.15,2013-02-04 04:32:00,
2013-02-03 22:38:00,58.1,50.9,30.02,SSE,154,14.0,19.0,77,0.00,,,0.00,Wunderground v.1.15,2013-02-04 04:38:00,
2013-02-03 22:44:00,58.0,50.8,30.02,SSE,160,13.0,20.0,77,0.00,,,0.00,Wunderground v.1.15,2013-02-04 04:44:00,
2013-02-03 22:50:00,57.9,51.1,30.02,SSE,159,13.0,13.0,78,0.00,,,0.00,Wunderground v.1.15,2013-02-04 04:50:00,
2013-02-03 22:56:00,57.8,51.0,30.02,SSE,148,12.0,16.0,78,0.00,,,0.00,Wunderground v.1.15,2013-02-04 04:56:00,
2013-02-03 23:00:00,57.7,51.2,30.02,South,175,12.0,13.0,79,0.00,,,0.00,Wunderground v.1.15,2013-02-04 05:00:00,
2013-02-03 23:02:00,57.7,51.2,30.02,SE,141,12.0,14.0,79,0.00,,,0.00,Wunderground v.1.15,2013-02-04 05:02:00,
2013-02-03 23:04:00,57.6,51.1,30.02,South,186,12.0,14.0,79,0.00,,,0.00,Wunderground v.1.15,2013-02-04 05:04:00,
2013-02-03 23:06:00,57.6,51.1,30.02,SSE,155,12.0,14.0,79,0.00,,,0.00,Wunderground v.1.15,2013-02-04 05:06:00,
2013-02-03 23:12:00,57.5,51.4,30.02,SSE,156,12.0,17.0,80,0.00,,,0.00,Wunderground v.1.15,2013-02-04 05:12:00,
2013-02-03 23:18:00,57.4,51.3,30.02,SE,140,12.0,17.0,80,0.00,,,0.00,Wunderground v.1.15,2013-02-04 05:18:00,
2013-02-03 23:24:00,57.3,51.5,30.02,SE,143,12.0,14.0,81,0.00,,,0.00,Wunderground v.1.15,2013-02-04 05:24:00,
2013-02-03 23:30:00,57.3,51.5,30.01,SSE,163,13.0,13.0,81,0.00,,,0.00,Wunderground v.1.15,2013-02-04 05:30:00,
2013-02-03 23:36:00,57.2,51.4,30.01,SE,145,13.0,13.0,81,0.00,,,0.00,Wunderground v.1.15,2013-02-04 05:36:00,
2013-02-03 23:42:00,57.0,51.6,30.01,ESE,115,12.0,12.0,82,0.00,,,0.00,Wunderground v.1.15,2013-02-04 05:42:00,
2013-02-03 23:48:00,56.9,51.5,30.01,ESE,104,13.0,16.0,82,0.00,,,0.00,Wunderground v.1.15,2013-02-04 05:48:00,
2013-02-03 23:54:00,56.8,51.4,30.01,SSE,156,12.0,12.0,82,0.00,,,0.00,Wunderground v.1.15,2013-02-04 05:54:00,